Hourly Weather Dajabón

Today, 17 April, Saturday

Time Temperature Precipitation Wind Pressure Humidity
00:00 +25°C° 0 mm 1 mps 758 mmHg 91%
01:00 +24°C° 0 mm 1 mps 757 mmHg 90%
02:00 +24°C° 0 mm 1 mps 757 mmHg 90%
03:00 +24°C° 0 mm 2 mps 757 mmHg 90%
04:00 +24°C° 0 mm 2 mps 757 mmHg 90%
05:00 +25°C° 0 mm 1 mps 758 mmHg 86%
06:00 +26°C° 0 mm 1 mps 758 mmHg 82%
07:00 +27°C° 0 mm 1 mps 759 mmHg 78%
08:00 +29°C° 0 mm 2 mps 759 mmHg 70%
09:00 +31°C° 0 mm 3 mps 759 mmHg 63%
10:00 +33°C° 0 mm 4 mps 759 mmHg 56%
11:00 +34°C° 0.1 mm 4 mps 759 mmHg 55%
12:00 +34°C° 0.1 mm 4 mps 758 mmHg 55%
13:00 +34°C° 0.1 mm 5 mps 758 mmHg 55%
14:00 +34°C° 0 mm 4 mps 758 mmHg 56%
15:00 +33°C° 0 mm 4 mps 757 mmHg 57%
16:00 +32°C° 0 mm 4 mps 757 mmHg 58%
17:00 +30°C° 0 mm 3 mps 758 mmHg 66%
18:00 +28°C° 0 mm 3 mps 758 mmHg 75%
19:00 +26°C° 0 mm 2 mps 758 mmHg 84%
20:00 +26°C° 0 mm 2 mps 759 mmHg 86%
21:00 +26°C° 0 mm 1 mps 759 mmHg 89%
22:00 +25°C° 0 mm 1 mps 759 mmHg 91%
23:00 +25°C° 0 mm 1 mps 759 mmHg 92%

Tomorrow, 18 April, Sunday

Time Temperature Precipitation Wind Pressure Humidity
00:00 +25°C° 0 mm 1 mps 759 mmHg 92%
01:00 +25°C° 0 mm 1 mps 758 mmHg 92%
02:00 +25°C° 0 mm 1 mps 758 mmHg 93%
03:00 +24°C° 0 mm 1 mps 758 mmHg 93%
04:00 +24°C° 0 mm 1 mps 758 mmHg 93%
05:00 +25°C° 0 mm 1 mps 758 mmHg 89%
06:00 +26°C° 0 mm 1 mps 759 mmHg 84%
07:00 +27°C° 0 mm 2 mps 759 mmHg 80%
08:00 +29°C° 0 mm 2 mps 760 mmHg 71%
09:00 +30°C° 0 mm 3 mps 760 mmHg 63%
10:00 +33°C° 0 mm 4 mps 760 mmHg 54%
11:00 +33°C° 0 mm 4 mps 759 mmHg 51%
12:00 +34°C° 0 mm 4 mps 759 mmHg 48%
13:00 +35°C° 0 mm 5 mps 758 mmHg 45%
14:00 +34°C° 0 mm 5 mps 758 mmHg 48%
15:00 +33°C° 0 mm 4 mps 758 mmHg 51%
16:00 +32°C° 0 mm 4 mps 758 mmHg 55%
17:00 +30°C° 0 mm 3 mps 758 mmHg 63%
18:00 +28°C° 0 mm 3 mps 758 mmHg 72%
19:00 +26°C° 0 mm 2 mps 759 mmHg 80%
20:00 +26°C° 0 mm 2 mps 759 mmHg 83%
21:00 +25°C° 0 mm 1 mps 760 mmHg 86%
22:00 +25°C° 0 mm 1 mps 760 mmHg 89%
23:00 +25°C° 0 mm 1 mps 760 mmHg 90%

Day after tomorrow, 19 April, Monday

Time Temperature Precipitation Wind Pressure Humidity
00:00 +24°C° 0 mm 1 mps 759 mmHg 90%
01:00 +24°C° 0 mm 1 mps 759 mmHg 91%
02:00 +24°C° 0 mm 1 mps 759 mmHg 92%
03:00 +24°C° 0 mm 1 mps 759 mmHg 93%
04:00 +24°C° 0 mm 1 mps 759 mmHg 94%
05:00 +25°C° 0 mm 1 mps 760 mmHg 89%
06:00 +26°C° 0 mm 1 mps 760 mmHg 84%
07:00 +27°C° 0 mm 1 mps 760 mmHg 79%
08:00 +29°C° 0 mm 2 mps 760 mmHg 70%
09:00 +32°C° 0 mm 4 mps 761 mmHg 61%
10:00 +34°C° 0 mm 5 mps 761 mmHg 51%
11:00 +34°C° 0 mm 5 mps 760 mmHg 49%
12:00 +34°C° 0 mm 5 mps 760 mmHg 47%
13:00 +34°C° 0 mm 5 mps 759 mmHg 46%
14:00 +33°C° 0 mm 5 mps 759 mmHg 48%
15:00 +33°C° 0 mm 5 mps 759 mmHg 51%
16:00 +32°C° 0 mm 4 mps 758 mmHg 54%
17:00 +29°C° 0 mm 4 mps 759 mmHg 63%
18:00 +28°C° 0 mm 3 mps 759 mmHg 72%
19:00 +26°C° 0 mm 2 mps 760 mmHg 81%
20:00 +26°C° 0 mm 2 mps 760 mmHg 84%
21:00 +25°C° 0 mm 2 mps 760 mmHg 86%
22:00 +25°C° 0 mm 2 mps 760 mmHg 89%
23:00 +25°C° 0 mm 2 mps 760 mmHg 88%

20 April, Tuesday

Time Temperature Precipitation Wind Pressure Humidity
00:00 +25°C° 0 mm 2 mps 760 mmHg 87%
01:00 +25°C° 0 mm 1 mps 759 mmHg 87%
02:00 +25°C° 0 mm 1 mps 759 mmHg 87%
03:00 +25°C° 0 mm 1 mps 759 mmHg 88%
04:00 +24°C° 0 mm 1 mps 759 mmHg 88%
05:00 +25°C° 0 mm 2 mps 760 mmHg 84%
06:00 +26°C° 0 mm 2 mps 760 mmHg 80%
07:00 +27°C° 0 mm 2 mps 761 mmHg 76%
08:00 +29°C° 0 mm 3 mps 761 mmHg 67%
09:00 +31°C° 0 mm 3 mps 761 mmHg 58%
10:00 +33°C° 0 mm 4 mps 761 mmHg 48%
11:00 +34°C° 0 mm 4 mps 760 mmHg 47%
12:00 +34°C° 0 mm 5 mps 760 mmHg 45%
13:00 +35°C° 0 mm 6 mps 759 mmHg 44%
14:00 +34°C° 0 mm 5 mps 759 mmHg 46%
15:00 +33°C° 0 mm 5 mps 759 mmHg 49%
16:00 +33°C° 0 mm 5 mps 758 mmHg 52%
17:00 +30°C° 0 mm 4 mps 759 mmHg 61%
18:00 +28°C° 0 mm 3 mps 759 mmHg 70%
19:00 +26°C° 0 mm 2 mps 760 mmHg 79%
20:00 +26°C° 0 mm 2 mps 760 mmHg 81%
21:00 +25°C° 0 mm 2 mps 760 mmHg 84%
22:00 +25°C° 0 mm 2 mps 760 mmHg 86%
23:00 +24°C° 0.2 mm 2 mps 760 mmHg 87%

21 April, Wednesday

Time Temperature Precipitation Wind Pressure Humidity
00:00 +24°C° 0.2 mm 2 mps 760 mmHg 88%
01:00 +24°C° 0.2 mm 2 mps 759 mmHg 90%
02:00 +24°C° 0 mm 2 mps 759 mmHg 90%
03:00 +23°C° 0 mm 2 mps 759 mmHg 91%
04:00 +23°C° 0 mm 2 mps 759 mmHg 92%
05:00 +24°C° 0 mm 2 mps 760 mmHg 87%
06:00 +26°C° 0 mm 2 mps 760 mmHg 82%
07:00 +27°C° 0 mm 1 mps 761 mmHg 77%
08:00 +29°C° 0 mm 2 mps 760 mmHg 65%
09:00 +31°C° 0 mm 2 mps 760 mmHg 53%
10:00 +34°C° 0 mm 3 mps 760 mmHg 41%
11:00 +34°C° 0 mm 4 mps 760 mmHg 40%
12:00 +35°C° 0 mm 5 mps 759 mmHg 39%
13:00 +35°C° 0 mm 5 mps 759 mmHg 38%
14:00 +34°C° 0 mm 5 mps 758 mmHg 42%
15:00 +33°C° 0 mm 5 mps 758 mmHg 46%
16:00 +32°C° 0 mm 5 mps 758 mmHg 50%
17:00 +30°C° 0 mm 4 mps 758 mmHg 60%
18:00 +28°C° 0 mm 3 mps 759 mmHg 70%
19:00 +26°C° 0 mm 2 mps 759 mmHg 80%
20:00 +26°C° 0 mm 2 mps 759 mmHg 82%
21:00 +25°C° 0 mm 2 mps 759 mmHg 84%
22:00 +25°C° 0 mm 2 mps 760 mmHg 87%
23:00 +24°C° 0 mm 2 mps 759 mmHg 88%

22 April, Thursday

Time Temperature Precipitation Wind Pressure Humidity
00:00 +24°C° 0 mm 2 mps 759 mmHg 90%
01:00 +24°C° 0 mm 2 mps 759 mmHg 91%
02:00 +23°C° 0 mm 2 mps 759 mmHg 92%
03:00 +23°C° 0 mm 1 mps 759 mmHg 92%
04:00 +23°C° 0 mm 1 mps 759 mmHg 92%
05:00 +24°C° 0 mm 1 mps 759 mmHg 87%
06:00 +25°C° 0 mm 2 mps 760 mmHg 81%
07:00 +27°C° 0 mm 2 mps 760 mmHg 75%
08:00 +29°C° 0 mm 2 mps 760 mmHg 64%
09:00 +31°C° 0 mm 3 mps 760 mmHg 53%
10:00 +34°C° 0 mm 3 mps 760 mmHg 42%
11:00 +34°C° 0 mm 4 mps 759 mmHg 41%
12:00 +35°C° 0 mm 4 mps 759 mmHg 41%
13:00 +35°C° 0 mm 5 mps 758 mmHg 40%
14:00 +34°C° 0 mm 5 mps 758 mmHg 44%
15:00 +33°C° 0 mm 5 mps 758 mmHg 48%
16:00 +32°C° 0 mm 5 mps 757 mmHg 52%
17:00 +30°C° 0 mm 4 mps 758 mmHg 62%
18:00 +28°C° 0 mm 3 mps 758 mmHg 71%
19:00 +27°C° 0 mm 2 mps 759 mmHg 81%
20:00 +26°C° 0 mm 2 mps 759 mmHg 83%
21:00 +25°C° 0 mm 2 mps 759 mmHg 85%
22:00 +25°C° 0 mm 1 mps 759 mmHg 87%
23:00 +24°C° 0 mm 1 mps 759 mmHg 88%
Show more